When you browse on this site, cookies collect data to enhance your experience and personalize the content and advertising you see.
Visit our Privacy Policy to learn more. By continuing to use the site, you agree to this use of cookies and data.
  • en Suisse
  • Liste des pays
  • À 7 jours
  • Température de l'eau
  • Carte satellitaire
  • Carte météo
  • Widgets météo
  • user-avatar
    Se connecter

    Météo par heure à Trushkino

    Ce jour, 20 Juin, Jeudi

    Heure Température Précipitation Vent Pression Humidité
    00:00 +19°C° 0 mm 1 m/s 747 mmHg 75%
    01:00 +18°C° 0 mm 1 m/s 747 mmHg 77%
    02:00 +18°C° 0 mm 1 m/s 747 mmHg 79%
    03:00 +18°C° 0 mm 1 m/s 747 mmHg 77%
    04:00 +18°C° 0 mm 1 m/s 748 mmHg 78%
    05:00 +19°C° 0 mm 1 m/s 748 mmHg 78%
    06:00 +20°C° 0 mm 1 m/s 748 mmHg 79%
    07:00 +19°C° 0 mm 0 m/s 748 mmHg 74%
    08:00 +21°C° 0 mm 0 m/s 748 mmHg 69%
    09:00 +23°C° 0 mm 0 m/s 748 mmHg 64%
    10:00 +24°C° 0 mm 0 m/s 748 mmHg 59%
    11:00 +25°C° 0 mm 0 m/s 748 mmHg 54%
    12:00 +26°C° 0 mm 0 m/s 748 mmHg 49%
    13:00 +26°C° 0 mm 0 m/s 748 mmHg 48%
    14:00 +28°C° 0 mm 1 m/s 748 mmHg 47%
    15:00 +28°C° 0 mm 1 m/s 748 mmHg 46%
    16:00 +28°C° 0 mm 1 m/s 748 mmHg 51%
    17:00 +28°C° 0 mm 1 m/s 747 mmHg 55%
    18:00 +28°C° 0 mm 1 m/s 747 mmHg 60%
    19:00 +26°C° 0 mm 1 m/s 747 mmHg 62%
    20:00 +24°C° 0 mm 1 m/s 747 mmHg 65%
    21:00 +22°C° 0 mm 1 m/s 747 mmHg 67%
    22:00 +21°C° 0 mm 1 m/s 748 mmHg 70%
    23:00 +21°C° 0 mm 1 m/s 748 mmHg 72%

    Demain, 21 Juin, Vendredi

    Heure Température Précipitation Vent Pression Humidité
    00:00 +20°C° 0 mm 1 m/s 748 mmHg 74%
    01:00 +19°C° 0 mm 1 m/s 748 mmHg 76%
    02:00 +19°C° 0 mm 1 m/s 748 mmHg 77%
    03:00 +19°C° 0 mm 1 m/s 749 mmHg 79%
    04:00 +19°C° 0 mm 1 m/s 749 mmHg 80%
    05:00 +20°C° 0 mm 1 m/s 749 mmHg 81%
    06:00 +20°C° 0 mm 1 m/s 749 mmHg 82%
    07:00 +21°C° 0 mm 2 m/s 749 mmHg 77%
    08:00 +24°C° 0 mm 2 m/s 749 mmHg 73%
    09:00 +25°C° 0 mm 3 m/s 749 mmHg 68%
    10:00 +26°C° 0 mm 3 m/s 749 mmHg 65%
    11:00 +27°C° 0 mm 3 m/s 749 mmHg 61%
    12:00 +28°C° 0 mm 3 m/s 749 mmHg 58%
    13:00 +28°C° 0 mm 3 m/s 748 mmHg 58%
    14:00 +28°C° 0 mm 4 m/s 748 mmHg 57%
    15:00 +29°C° 0 mm 4 m/s 748 mmHg 57%
    16:00 +28°C° 0.1 mm 3 m/s 748 mmHg 62%
    17:00 +28°C° 0.1 mm 3 m/s 748 mmHg 66%
    18:00 +27°C° 0.1 mm 3 m/s 748 mmHg 70%
    19:00 +26°C° 0 mm 3 m/s 748 mmHg 73%
    20:00 +24°C° 0 mm 3 m/s 748 mmHg 76%
    21:00 +22°C° 0 mm 3 m/s 748 mmHg 79%
    22:00 +21°C° 0 mm 3 m/s 748 mmHg 80%
    23:00 +21°C° 0 mm 3 m/s 748 mmHg 80%

    Après-demain, 22 Juin, Samedi

    Heure Température Précipitation Vent Pression Humidité
    00:00 +20°C° 0 mm 3 m/s 748 mmHg 80%
    01:00 +20°C° 0 mm 3 m/s 748 mmHg 82%
    02:00 +19°C° 0 mm 3 m/s 748 mmHg 83%
    03:00 +19°C° 0 mm 3 m/s 748 mmHg 85%
    04:00 +19°C° 0 mm 3 m/s 748 mmHg 85%
    05:00 +20°C° 0 mm 3 m/s 748 mmHg 85%
    06:00 +20°C° 0 mm 3 m/s 748 mmHg 85%
    07:00 +21°C° 0 mm 3 m/s 748 mmHg 81%
    08:00 +23°C° 0 mm 4 m/s 748 mmHg 77%
    09:00 +26°C° 0 mm 4 m/s 749 mmHg 73%
    10:00 +27°C° 0.1 mm 4 m/s 749 mmHg 70%
    11:00 +27°C° 0.1 mm 5 m/s 748 mmHg 66%
    12:00 +28°C° 0.1 mm 5 m/s 748 mmHg 63%
    13:00 +29°C° 0.1 mm 5 m/s 748 mmHg 62%
    14:00 +29°C° 0.1 mm 5 m/s 748 mmHg 62%
    15:00 +29°C° 0.1 mm 5 m/s 748 mmHg 61%
    16:00 +29°C° 0 mm 4 m/s 748 mmHg 64%
    17:00 +28°C° 0 mm 4 m/s 747 mmHg 67%
    18:00 +28°C° 0 mm 3 m/s 747 mmHg 69%
    19:00 +27°C° 0 mm 3 m/s 748 mmHg 73%
    20:00 +25°C° 0 mm 3 m/s 748 mmHg 77%
    21:00 +24°C° 0 mm 3 m/s 748 mmHg 80%
    22:00 +22°C° 0 mm 3 m/s 748 mmHg 81%
    23:00 +21°C° 0 mm 3 m/s 748 mmHg 83%

    23 Juin, Dimanche

    Heure Température Précipitation Vent Pression Humidité
    00:00 +21°C° 0 mm 3 m/s 748 mmHg 84%
    01:00 +20°C° 0 mm 3 m/s 748 mmHg 86%
    02:00 +20°C° 0 mm 2 m/s 748 mmHg 88%
    03:00 +19°C° 0 mm 2 m/s 748 mmHg 89%
    04:00 +20°C° 0 mm 2 m/s 748 mmHg 88%
    05:00 +20°C° 0 mm 2 m/s 748 mmHg 87%
    06:00 +21°C° 0 mm 2 m/s 748 mmHg 87%
    07:00 +24°C° 0.1 mm 2 m/s 748 mmHg 81%
    08:00 +25°C° 0.1 mm 2 m/s 749 mmHg 75%
    09:00 +27°C° 0.1 mm 3 m/s 749 mmHg 70%
    10:00 +28°C° 0 mm 3 m/s 749 mmHg 65%
    11:00 +29°C° 0 mm 3 m/s 749 mmHg 60%
    12:00 +30°C° 0 mm 4 m/s 749 mmHg 56%
    13:00 +30°C° 0.1 mm 4 m/s 749 mmHg 56%
    14:00 +30°C° 0.1 mm 4 m/s 749 mmHg 57%
    15:00 +30°C° 0.1 mm 4 m/s 749 mmHg 57%
    16:00 +29°C° 0.3 mm 3 m/s 749 mmHg 62%
    17:00 +28°C° 0.3 mm 3 m/s 748 mmHg 66%
    18:00 +28°C° 0.3 mm 2 m/s 748 mmHg 71%
    19:00 +26°C° 0.3 mm 2 m/s 748 mmHg 76%
    20:00 +25°C° 0.3 mm 2 m/s 749 mmHg 81%
    21:00 +23°C° 0.3 mm 2 m/s 749 mmHg 86%
    22:00 +21°C° 0 mm 2 m/s 749 mmHg 88%
    23:00 +21°C° 0 mm 2 m/s 749 mmHg 91%

    24 Juin, Lundi

    Heure Température Précipitation Vent Pression Humidité
    00:00 +20°C° 0 mm 2 m/s 749 mmHg 93%
    01:00 +19°C° 0 mm 3 m/s 749 mmHg 93%
    02:00 +19°C° 0 mm 3 m/s 750 mmHg 93%
    03:00 +18°C° 0 mm 3 m/s 750 mmHg 93%
    04:00 +18°C° 0 mm 3 m/s 750 mmHg 92%
    05:00 +18°C° 0 mm 3 m/s 750 mmHg 90%
    06:00 +18°C° 0 mm 3 m/s 750 mmHg 88%
    07:00 +19°C° 0 mm 4 m/s 750 mmHg 83%
    08:00 +20°C° 0 mm 4 m/s 751 mmHg 78%
    09:00 +21°C° 0 mm 5 m/s 751 mmHg 73%
    10:00 +22°C° 0 mm 5 m/s 751 mmHg 69%
    11:00 +22°C° 0 mm 5 m/s 751 mmHg 66%
    12:00 +23°C° 0 mm 5 m/s 751 mmHg 63%
    13:00 +23°C° 0 mm 5 m/s 751 mmHg 61%
    14:00 +23°C° 0 mm 5 m/s 751 mmHg 60%
    15:00 +25°C° 0 mm 5 m/s 751 mmHg 59%
    16:00 +23°C° 0 mm 5 m/s 751 mmHg 61%
    17:00 +23°C° 0 mm 4 m/s 751 mmHg 62%
    18:00 +22°C° 0 mm 4 m/s 751 mmHg 64%
    19:00 +21°C° 0 mm 4 m/s 751 mmHg 64%
    20:00 +19°C° 0 mm 3 m/s 752 mmHg 65%
    21:00 +18°C° 0 mm 3 m/s 752 mmHg 66%
    22:00 +18°C° 0 mm 3 m/s 752 mmHg 64%
    23:00 +18°C° 0 mm 4 m/s 752 mmHg 63%

    25 Juin, Mardi

    Heure Température Précipitation Vent Pression Humidité
    00:00 +18°C° 0 mm 4 m/s 752 mmHg 62%
    01:00 +17°C° 0 mm 3 m/s 752 mmHg 63%
    02:00 +17°C° 0 mm 3 m/s 752 mmHg 64%
    03:00 +17°C° 0 mm 3 m/s 752 mmHg 65%
    04:00 +17°C° 0 mm 3 m/s 752 mmHg 66%
    05:00 +17°C° 0 mm 3 m/s 752 mmHg 67%
    06:00 +17°C° 0 mm 3 m/s 752 mmHg 68%
    07:00 +17°C° 0 mm 3 m/s 752 mmHg 69%
    08:00 +17°C° 0 mm 3 m/s 752 mmHg 71%
    09:00 +17°C° 0 mm 3 m/s 752 mmHg 73%
    10:00 +18°C° 0 mm 3 m/s 752 mmHg 69%
    11:00 +19°C° 0 mm 2 m/s 752 mmHg 66%
    12:00 +20°C° 0 mm 2 m/s 751 mmHg 63%
    13:00 +21°C° 0 mm 2 m/s 751 mmHg 60%
    14:00 +21°C° 0 mm 2 m/s 751 mmHg 58%
    15:00 +23°C° 0 mm 2 m/s 751 mmHg 56%
    16:00 +23°C° 0 mm 2 m/s 750 mmHg 58%
    17:00 +23°C° 0 mm 2 m/s 750 mmHg 60%
    18:00 +23°C° 0 mm 2 m/s 750 mmHg 62%
    19:00 +21°C° 0 mm 1 m/s 750 mmHg 66%
    20:00 +20°C° 0 mm 1 m/s 749 mmHg 70%
    21:00 +18°C° 0 mm 1 m/s 749 mmHg 74%
    22:00 +16°C° 0 mm 1 m/s 749 mmHg 75%
    23:00 +16°C° 0 mm 1 m/s 749 mmHg 76%
    Voir plus